Time,TemperatureF,DewpointF,PressureIn,WindDirection,WindDirectionDegrees,WindSpeedMPH,WindSpeedGustMPH,Humidity,HourlyPrecipIn,Conditions,Clouds,dailyrainin,SoftwareType,DateUTC
2013-02-07 00:00:00,47.0,44.0,-100.00,ESE,111,2.0,-999.0,86,0.00,,,-99.99,,2013-02-07 08:00:00,
2013-02-07 00:22:00,47.0,44.0,-100.00,ESE,111,2.0,-999.0,86,0.00,,,-99.99,,2013-02-07 08:22:00,
2013-02-07 00:32:00,47.0,44.0,-100.00,ESE,111,2.0,-999.0,86,0.00,,,-99.99,,2013-02-07 08:32:00,
2013-02-07 00:42:00,47.0,44.0,-100.00,ESE,111,2.0,-999.0,86,0.00,,,-99.99,,2013-02-07 08:42:00,
2013-02-07 00:52:00,47.0,44.0,-100.00,ESE,111,2.0,-999.0,86,0.00,,,-99.99,,2013-02-07 08:52:00,
2013-02-07 01:00:00,49.0,45.0,-100.00,SE,136,2.0,-999.0,87,0.00,,,-99.99,,2013-02-07 09:00:00,
2013-02-07 01:22:00,49.0,45.0,-100.00,SE,136,2.0,-999.0,87,0.00,,,-99.99,,2013-02-07 09:22:00,
2013-02-07 01:32:00,49.0,45.0,-100.00,SE,136,2.0,-999.0,87,0.00,,,-99.99,,2013-02-07 09:32:00,
2013-02-07 01:42:00,49.0,45.0,-100.00,SE,136,2.0,-999.0,87,0.00,,,-99.99,,2013-02-07 09:42:00,
2013-02-07 01:52:00,49.0,45.0,-100.00,SE,136,2.0,-999.0,87,0.00,,,-99.99,,2013-02-07 09:52:00,
2013-02-07 02:00:00,49.0,46.0,-100.00,ESE,119,9.0,-999.0,89,0.00,,,-99.99,,2013-02-07 10:00:00,
2013-02-07 02:22:00,49.0,46.0,-100.00,ESE,119,9.0,-999.0,89,0.00,,,-99.99,,2013-02-07 10:22:00,
2013-02-07 02:32:00,49.0,46.0,-100.00,ESE,119,9.0,-999.0,89,0.00,,,-99.99,,2013-02-07 10:32:00,
2013-02-07 02:42:00,49.0,46.0,-100.00,ESE,119,9.0,-999.0,89,0.00,,,-99.99,,2013-02-07 10:42:00,
2013-02-07 02:52:00,49.0,46.0,-100.00,ESE,119,9.0,-999.0,89,0.00,,,-99.99,,2013-02-07 10:52:00,
2013-02-07 03:00:00,50.0,47.0,-100.00,SE,133,5.0,-999.0,90,0.00,,,-99.99,,2013-02-07 11:00:00,
2013-02-07 03:23:00,50.0,47.0,-100.00,SE,133,5.0,-999.0,90,0.00,,,-99.99,,2013-02-07 11:23:00,
2013-02-07 03:32:00,50.0,47.0,-100.00,SE,133,5.0,-999.0,90,0.00,,,-99.99,,2013-02-07 11:32:00,
2013-02-07 03:44:00,50.0,47.0,-100.00,SE,133,5.0,-999.0,90,0.00,,,-99.99,,2013-02-07 11:44:00,
2013-02-07 03:52:00,50.0,47.0,-100.00,SE,133,5.0,-999.0,90,0.00,,,-99.99,,2013-02-07 11:52:00,
2013-02-07 04:00:00,50.0,47.0,-100.00,West,266,5.0,-999.0,91,0.00,,,-99.99,,2013-02-07 12:00:00,
2013-02-07 04:22:00,50.0,47.0,-100.00,West,266,5.0,-999.0,91,0.00,,,-99.99,,2013-02-07 12:22:00,
2013-02-07 04:33:00,50.0,47.0,-100.00,West,266,5.0,-999.0,91,0.00,,,-99.99,,2013-02-07 12:33:00,
2013-02-07 04:42:00,50.0,47.0,-100.00,West,266,5.0,-999.0,91,0.00,,,-99.99,,2013-02-07 12:42:00,
2013-02-07 04:53:00,50.0,47.0,-100.00,West,266,5.0,-999.0,91,0.00,,,-99.99,,2013-02-07 12:53:00,
2013-02-07 05:00:00,48.0,46.0,-100.00,NW,307,9.0,-999.0,90,0.00,,,-99.99,,2013-02-07 13:00:00,
2013-02-07 05:22:00,48.0,46.0,-100.00,NW,307,9.0,-999.0,90,0.00,,,-99.99,,2013-02-07 13:22:00,
2013-02-07 05:32:00,48.0,46.0,-100.00,NW,307,9.0,-999.0,90,0.00,,,-99.99,,2013-02-07 13:32:00,
2013-02-07 05:42:00,48.0,46.0,-100.00,NW,307,9.0,-999.0,90,0.00,,,-99.99,,2013-02-07 13:42:00,
2013-02-07 05:52:00,48.0,46.0,-100.00,NW,307,9.0,-999.0,90,0.00,,,-99.99,,2013-02-07 13:52:00,
2013-02-07 06:00:00,49.0,46.0,-100.00,NNW,328,5.0,-999.0,90,0.00,,,-99.99,,2013-02-07 14:00:00,
2013-02-07 06:22:00,49.0,46.0,-100.00,NNW,328,5.0,-999.0,90,0.00,,,-99.99,,2013-02-07 14:22:00,
2013-02-07 06:32:00,49.0,46.0,-100.00,NNW,328,5.0,-999.0,90,0.00,,,-99.99,,2013-02-07 14:32:00,
2013-02-07 06:42:00,49.0,46.0,-100.00,NNW,328,5.0,-999.0,90,0.00,,,-99.99,,2013-02-07 14:42:00,
2013-02-07 06:52:00,49.0,46.0,-100.00,NNW,328,5.0,-999.0,90,0.00,,,-99.99,,2013-02-07 14:52:00,
2013-02-07 07:00:00,47.0,45.0,-100.00,NE,34,3.0,-999.0,90,0.00,,,-99.99,,2013-02-07 15:00:00,
2013-02-07 07:32:00,47.0,45.0,-100.00,NE,34,3.0,-999.0,90,0.00,,,-99.99,,2013-02-07 15:32:00,
2013-02-07 07:42:00,47.0,45.0,-100.00,NE,34,3.0,-999.0,90,0.00,,,-99.99,,2013-02-07 15:42:00,
2013-02-07 07:52:00,47.0,45.0,-100.00,NE,34,3.0,-999.0,90,0.00,,,-99.99,,2013-02-07 15:52:00,
2013-02-07 08:00:00,45.0,42.0,-100.00,NE,47,1.0,-999.0,90,0.00,,,-99.99,,2013-02-07 16:00:00,
2013-02-07 08:22:00,45.0,42.0,-100.00,NE,47,1.0,-999.0,90,0.00,,,-99.99,,2013-02-07 16:22:00,
2013-02-07 08:32:00,45.0,42.0,-100.00,NE,47,1.0,-999.0,90,0.00,,,-99.99,,2013-02-07 16:32:00,
2013-02-07 08:42:00,45.0,42.0,-100.00,NE,47,1.0,-999.0,90,0.00,,,-99.99,,2013-02-07 16:42:00,
2013-02-07 08:52:00,45.0,42.0,-100.00,NE,47,1.0,-999.0,90,0.00,,,-99.99,,2013-02-07 16:52:00,
2013-02-07 09:00:00,46.0,44.0,-100.00,NE,42,2.0,-999.0,91,0.00,,,-99.99,,2013-02-07 17:00:00,
2013-02-07 09:22:00,46.0,44.0,-100.00,NE,42,2.0,-999.0,91,0.00,,,-99.99,,2013-02-07 17:22:00,
2013-02-07 09:32:00,46.0,44.0,-100.00,NE,42,2.0,-999.0,91,0.00,,,-99.99,,2013-02-07 17:32:00,
2013-02-07 09:43:00,46.0,44.0,-100.00,NE,42,2.0,-999.0,91,0.00,,,-99.99,,2013-02-07 17:43:00,
2013-02-07 09:52:00,46.0,44.0,-100.00,NE,42,2.0,-999.0,91,0.00,,,-99.99,,2013-02-07 17:52:00,
2013-02-07 10:00:00,49.0,45.0,-100.00,NNE,20,2.0,-999.0,87,0.00,,,-99.99,,2013-02-07 18:00:00,
2013-02-07 10:42:00,49.0,45.0,-100.00,NNE,20,2.0,-999.0,87,0.00,,,-99.99,,2013-02-07 18:42:00,
2013-02-07 10:52:00,49.0,45.0,-100.00,NNE,20,2.0,-999.0,87,0.00,,,-99.99,,2013-02-07 18:52:00,
2013-02-07 11:00:00,51.0,43.0,-100.00,WNW,301,2.0,-999.0,71,0.00,,,-99.99,,2013-02-07 19:00:00,
2013-02-07 11:32:00,51.0,43.0,-100.00,WNW,301,2.0,-999.0,71,0.00,,,-99.99,,2013-02-07 19:32:00,
2013-02-07 11:42:00,51.0,43.0,-100.00,WNW,301,2.0,-999.0,71,0.00,,,-99.99,,2013-02-07 19:42:00,
2013-02-07 11:52:00,51.0,43.0,-100.00,WNW,301,2.0,-999.0,71,0.00,,,-99.99,,2013-02-07 19:52:00,
2013-02-07 12:00:00,53.0,43.0,-100.00,NW,313,2.0,-999.0,68,0.00,,,-99.99,,2013-02-07 20:00:00,
2013-02-07 12:22:00,53.0,43.0,-100.00,NW,313,2.0,-999.0,68,0.00,,,-99.99,,2013-02-07 20:22:00,
2013-02-07 12:32:00,53.0,43.0,-100.00,NW,313,2.0,-999.0,68,0.00,,,-99.99,,2013-02-07 20:32:00,
2013-02-07 12:42:00,53.0,43.0,-100.00,NW,313,2.0,-999.0,68,0.00,,,-99.99,,2013-02-07 20:42:00,
2013-02-07 12:52:00,53.0,43.0,-100.00,NW,313,2.0,-999.0,68,0.00,,,-99.99,,2013-02-07 20:52:00,
2013-02-07 13:00:00,53.0,41.0,-100.00,WSW,255,4.0,-999.0,64,0.00,,,-99.99,,2013-02-07 21:00:00,
2013-02-07 13:22:00,53.0,41.0,-100.00,WSW,255,4.0,-999.0,64,0.00,,,-99.99,,2013-02-07 21:22:00,
2013-02-07 13:32:00,53.0,41.0,-100.00,WSW,255,4.0,-999.0,64,0.00,,,-99.99,,2013-02-07 21:32:00,
2013-02-07 13:42:00,53.0,41.0,-100.00,WSW,255,4.0,-999.0,64,0.00,,,-99.99,,2013-02-07 21:42:00,
2013-02-07 13:52:00,53.0,41.0,-100.00,WSW,255,4.0,-999.0,64,0.00,,,-99.99,,2013-02-07 21:52:00,
2013-02-07 14:00:00,53.0,39.0,-100.00,West,271,6.0,-999.0,59,0.00,,,-99.99,,2013-02-07 22:00:00,
2013-02-07 14:22:00,53.0,39.0,-100.00,West,271,6.0,-999.0,59,0.00,,,-99.99,,2013-02-07 22:22:00,
2013-02-07 14:32:00,53.0,39.0,-100.00,West,271,6.0,-999.0,59,0.00,,,-99.99,,2013-02-07 22:32:00,
2013-02-07 14:42:00,53.0,39.0,-100.00,West,271,6.0,-999.0,59,0.00,,,-99.99,,2013-02-07 22:42:00,
2013-02-07 14:52:00,53.0,39.0,-100.00,West,271,6.0,-999.0,59,0.00,,,-99.99,,2013-02-07 22:52:00,
2013-02-07 15:00:00,50.0,38.0,-100.00,WSW,255,5.0,-999.0,63,0.00,,,-99.99,,2013-02-07 23:00:00,
2013-02-07 15:22:00,50.0,38.0,-100.00,WSW,255,5.0,-999.0,63,0.00,,,-99.99,,2013-02-07 23:22:00,
2013-02-07 15:32:00,50.0,38.0,-100.00,WSW,255,5.0,-999.0,63,0.00,,,-99.99,,2013-02-07 23:32:00,
2013-02-07 15:42:00,50.0,38.0,-100.00,WSW,255,5.0,-999.0,63,0.00,,,-99.99,,2013-02-07 23:42:00,
2013-02-07 15:52:00,50.0,38.0,-100.00,WSW,255,5.0,-999.0,63,0.00,,,-99.99,,2013-02-07 23:52:00,
2013-02-07 16:00:00,47.0,42.0,-100.00,SSE,160,2.0,-999.0,83,0.00,,,-99.99,,2013-02-08 00:00:00,
2013-02-07 16:22:00,47.0,42.0,-100.00,SSE,160,2.0,-999.0,83,0.00,,,-99.99,,2013-02-08 00:22:00,
2013-02-07 16:32:00,47.0,42.0,-100.00,SSE,160,2.0,-999.0,83,0.00,,,-99.99,,2013-02-08 00:32:00,
2013-02-07 16:42:00,47.0,42.0,-100.00,SSE,160,2.0,-999.0,83,0.00,,,-99.99,,2013-02-08 00:42:00,
2013-02-07 16:52:00,47.0,42.0,-100.00,SSE,160,2.0,-999.0,83,0.00,,,-99.99,,2013-02-08 00:52:00,
2013-02-07 17:00:00,47.0,40.0,-100.00,SSE,153,4.0,-999.0,76,0.00,,,-99.99,,2013-02-08 01:00:00,
2013-02-07 17:21:00,47.0,40.0,-100.00,SSE,153,4.0,-999.0,76,0.00,,,-99.99,,2013-02-08 01:21:00,
2013-02-07 17:32:00,47.0,40.0,-100.00,SSE,153,4.0,-999.0,76,0.00,,,-99.99,,2013-02-08 01:32:00,
2013-02-07 17:42:00,47.0,40.0,-100.00,SSE,153,4.0,-999.0,76,0.00,,,-99.99,,2013-02-08 01:42:00,
2013-02-07 17:52:00,47.0,40.0,-100.00,SSE,153,4.0,-999.0,76,0.00,,,-99.99,,2013-02-08 01:52:00,
2013-02-07 18:00:00,46.0,40.0,-100.00,ESE,106,1.0,-999.0,77,0.00,,,-99.99,,2013-02-08 02:00:00,
2013-02-07 18:22:00,46.0,40.0,-100.00,ESE,106,1.0,-999.0,77,0.00,,,-99.99,,2013-02-08 02:22:00,
2013-02-07 18:32:00,46.0,40.0,-100.00,ESE,106,1.0,-999.0,77,0.00,,,-99.99,,2013-02-08 02:32:00,
2013-02-07 18:42:00,46.0,40.0,-100.00,ESE,106,1.0,-999.0,77,0.00,,,-99.99,,2013-02-08 02:42:00,
2013-02-07 18:52:00,46.0,40.0,-100.00,ESE,106,1.0,-999.0,77,0.00,,,-99.99,,2013-02-08 02:52:00,
2013-02-07 19:00:00,42.0,39.0,-100.00,East,94,2.0,-999.0,86,0.00,,,-99.99,,2013-02-08 03:00:00,
2013-02-07 19:22:00,42.0,39.0,-100.00,East,94,2.0,-999.0,86,0.00,,,-99.99,,2013-02-08 03:22:00,
2013-02-07 19:32:00,42.0,39.0,-100.00,East,94,2.0,-999.0,86,0.00,,,-99.99,,2013-02-08 03:32:00,
2013-02-07 19:42:00,42.0,39.0,-100.00,East,94,2.0,-999.0,86,0.00,,,-99.99,,2013-02-08 03:42:00,
2013-02-07 19:52:00,42.0,39.0,-100.00,East,94,2.0,-999.0,86,0.00,,,-99.99,,2013-02-08 03:52:00,
2013-02-07 20:00:00,43.0,40.0,-100.00,East,86,3.0,-999.0,88,0.00,,,-99.99,,2013-02-08 04:00:00,
2013-02-07 20:21:00,43.0,40.0,-100.00,East,86,3.0,-999.0,88,0.00,,,-99.99,,2013-02-08 04:21:00,
2013-02-07 20:32:00,43.0,40.0,-100.00,East,86,3.0,-999.0,88,0.00,,,-99.99,,2013-02-08 04:32:00,
2013-02-07 20:42:00,43.0,40.0,-100.00,East,86,3.0,-999.0,88,0.00,,,-99.99,,2013-02-08 04:42:00,
2013-02-07 20:52:00,43.0,40.0,-100.00,East,86,3.0,-999.0,88,0.00,,,-99.99,,2013-02-08 04:52:00,
2013-02-07 21:00:00,40.0,38.0,-100.00,East,93,3.0,-999.0,90,0.00,,,-99.99,,2013-02-08 05:00:00,
2013-02-07 21:22:00,40.0,38.0,-100.00,East,93,3.0,-999.0,90,0.00,,,-99.99,,2013-02-08 05:22:00,
2013-02-07 21:32:00,40.0,38.0,-100.00,East,93,3.0,-999.0,90,0.00,,,-99.99,,2013-02-08 05:32:00,
2013-02-07 21:42:00,40.0,38.0,-100.00,East,93,3.0,-999.0,90,0.00,,,-99.99,,2013-02-08 05:42:00,
2013-02-07 21:52:00,40.0,38.0,-100.00,East,93,3.0,-999.0,90,0.00,,,-99.99,,2013-02-08 05:52:00,